Location: ???????
(55.4362°N, 38.1183°E)
Time: 17:56:16
(UTC+00:00)

Cosmos 2278 Rocket - Pass Details

Date: 17 June 2021
Orbit: 840 x 846 km, 71.0° (Epoch: 29 July)

Event Time Altitude Azimuth Distance (km) Brightness Sun altitude
Rises 21:53:02 0° 318° (NW) 3,413 6.0 -11.0°
Reaches altitude 10° 21:56:22 10° 299° (WNW) 2,474 4.9 -10.9°
Maximum altitude 21:59:45 16° 262° (W) 2,048 4.1 -10.9°
Drops below altitude 10° 22:03:09 10° 225° (SW) 2,466 4.1 -10.8°
Enters shadow 22:03:36 - 221° (SW) 2,573 4.2 -10.8°
